Wind_Speed
8 11 13 14 14 13 13 16 16 15 16 16 16 16 17 21 26 29 30 29 28 29 29 29 29 29 29 29 30 30 29 28 27 27 26 25 23 21 19 17 16 15 13 11 10 10 11 11 9 7 6 7 7 8 8 7 6 6 6 8 10 11 12 11 12 13 11 11 11 9 8 5 3 4 5 7 9 11 11 11 10 11 12 14 16
4 7 10 12 13 12 11 12 14 15 15 15 15 13 13 17 23 27 28 29 30 32 31 31 31 30 29 30 30 30 30 30 29 28 27 25 22 19 17 16 16 14 12 10 10 11 11 9 7 5 5 6 6 7 8 6 6 5 6 8 9 10 12 11 12 10 7 8 9 8 8 6 3 3 4 6 8 9 10 10 10 10 11 14 15
4 5 7 10 11 9 8 10 13 15 16 15 14 13 12 14 18 22 26 29 31 30 29 30 30 30 30 30 30 30 29 29 29 27 26 23 20 18 15 14 14 12 10 10 11 11 10 7 5 4 5 6 6 7 6 5 5 5 6 9 9 10 11 11 11 9 7 8 6 3 4 5 3 1 5 8 7 8 9 9 10 10 12 13 14
4 4 6 6 6 6 6 8 12 15 16 16 14 13 12 13 15 19 24 27 26 23 24 27 29 29 29 29 28 27 26 26 25 25 24 21 19 16 13 13 12 10 9 9 9 9 7 6 5 6 6 6 6 6 5 4 5 6 7 8 9 10 11 11 12 11 9 6 4 2 1 2 2 3 8 9 5 5 8 9 10 10 11 12 13
6 8 6 3 3 6 6 8 11 14 16 15 14 13 13 13 14 17 19 19 17 18 21 24 25 23 22 21 22 21 21 21 21 21 21 19 17 15 13 12 10 8 8 7 7 7 7 7 6 7 7 7 6 4 3 4 5 7 7 7 8 9 9 10 11 12 11 6 2 3 2 1 1 4 7 5 4 4 5 7 9 10 11 12 14
6 7 5 6 6 6 7 9 12 13 13 12 11 11 13 13 14 15 14 12 13 16 18 18 17 16 15 14 14 15 16 17 19 20 20 19 17 15 12 11 9 6 7 7 8 8 8 7 5 5 6 6 4 3 4 5 6 7 7 6 6 6 8 9 10 11 12 8 4 4 4 5 5 5 4 2 5 5 2 4 6 8 10 11 13
4 3 2 5 8 7 10 14 13 12 11 11 10 10 11 12 14 15 12 11 11 13 12 10 11 12 11 10 9 11 13 15 16 16 18 19 17 16 12 10 8 6 6 9 10 9 7 5 3 3 4 3 2 3 5 6 7 7 6 5 5 5 6 8 9 10 10 9 8 6 6 8 8 6 3 1 4 4 3 4 3 4 6 9 12
4 4 3 3 6 10 15 16 11 11 9 10 11 10 10 12 15 14 11 11 10 9 9 8 10 13 13 12 11 11 12 13 11 11 14 17 16 14 13 11 8 7 9 11 12 8 5 4 1 1 2 2 1 3 5 6 7 5 3 4 4 5 5 6 7 7 7 8 9 8 6 6 6 7 6 4 3 3 4 4 3 4 5 7 9
4 5 5 5 8 11 14 11 9 10 9 10 12 11 11 12 15 13 8 8 8 10 14 13 13 17 18 19 19 18 17 15 12 11 14 17 15 13 12 9 6 8 10 12 11 7 5 3 1 0 1 1 3 4 4 6 6 3 1 3 4 4 3 4 5 4 4 6 7 8 7 6 4 3 4 5 4 4 3 2 4 6 6 5 5
5 5 5 7 9 11 12 10 9 9 8 10 11 12 11 10 11 10 5 3 3 6 10 10 9 11 13 16 18 19 19 19 18 16 16 16 16 15 13 10 9 9 9 9 10 7 3 2 2 1 1 2 2 3 4 4 4 4 3 3 3 3 3 4 4 3 4 5 6 7 8 7 5 2 2 2 3 4 3 3 5 5 5 6 7
5 5 6 8 8 10 11 10 10 9 9 9 10 11 10 8 7 6 3 2 3 1 3 5 6 7 9 11 13 15 15 16 16 13 15 15 14 14 13 12 11 9 6 7 8 6 3 2 2 1 1 2 1 2 3 3 4 4 4 4 4 4 3 4 4 4 4 4 4 5 6 7 5 3 4 3 2 3 2 3 5 5 5 5 9
5 7 7 7 7 8 9 10 10 11 11 10 11 11 10 9 7 3 1 1 1 2 2 4 6 7 8 9 11 12 12 15 15 11 12 15 12 10 11 12 10 8 5 5 5 3 4 3 1 1 0 1 1 3 3 3 3 2 3 4 4 3 3 4 4 4 4 3 3 3 3 4 3 3 4 3 2 3 3 2 3 6 4 5 10
5 6 6 5 5 7 9 10 12 13 12 12 12 12 11 10 8 6 4 2 3 5 4 2 3 3 3 4 7 8 8 11 13 11 10 12 11 10 11 10 7 5 4 4 2 3 4 3 2 2 2 2 2 2 1 1 1 2 3 3 3 2 3 4 4 4 4 4 4 3 3 3 3 3 3 2 2 3 3 2 2 3 2 4 9
4 5 5 4 4 7 9 11 12 12 12 12 12 11 11 9 8 7 6 4 5 6 5 2 1 1 2 0 3 5 5 5 8 9 8 8 8 8 7 5 4 4 3 3 3 4 4 4 4 3 3 2 1 0 1 1 1 2 3 3 2 3 4 5 5 5 5 5 5 4 4 3 3 4 4 3 3 4 4 3 2 2 3 4 5
3 3 3 3 5 7 8 10 11 11 11 11 10 10 9 8 8 8 8 7 7 6 5 4 4 4 3 1 1 3 3 2 4 5 5 5 5 4 4 3 3 3 4 5 6 6 6 5 4 3 2 2 2 1 1 1 1 3 4 4 5 5 6 6 7 7 6 6 5 4 3 2 2 3 3 3 2 3 3 3 3 2 2 2 2
4 4 3 3 5 7 8 9 9 10 10 10 9 8 8 7 8 9 8 7 7 7 7 6 5 5 4 3 2 3 3 3 4 4 4 4 3 3 3 3 3 5 6 7 7 7 6 5 4 3 2 1 2 1 1 1 2 4 6 7 8 8 8 8 7 7 6 6 5 4 3 3 2 1 1 0 0 1 1 2 3 3 2 1 1
4 4 4 4 6 8 8 9 10 11 11 10 9 8 8 8 8 8 8 7 7 8 8 7 7 7 6 5 5 4 4 4 4 4 4 4 4 4 4 5 6 6 7 7 6 6 5 4 3 3 3 3 2 1 1 2 3 5 7 9 10 10 10 9 8 8 7 6 5 4 4 4 4 4 3 2 2 1 1 1 1 2 3 2 1
3 4 4 5 7 8 9 10 11 12 11 10 10 9 10 10 10 10 10 9 9 9 8 8 8 8 7 7 7 6 5 5 5 4 4 4 5 6 6 6 6 6 6 6 5 5 4 3 3 3 2 2 1 1 2 3 4 6 9 10 11 12 12 10 9 8 8 7 5 4 4 5 4 4 3 2 2 2 2 2 2 2 1 2 2
3 4 4 4 7 9 10 11 11 12 11 10 10 10 11 11 11 11 12 11 10 9 9 9 8 9 9 8 8 7 7 5 4 3 4 5 6 6 6 6 6 6 5 5 4 4 3 3 3 2 1 1 2 3 4 4 5 7 9 11 12 13 13 13 11 9 9 8 7 4 3 4 5 4 3 2 2 2 3 3 3 3 2 2 3
5 5 5 5 8 11 13 13 14 14 13 13 12 12 12 12 11 12 12 11 11 10 9 10 9 9 9 8 7 7 6 4 4 4 5 6 6 6 7 7 7 5 4 3 2 1 1 2 2 2 2 3 3 4 5 5 6 8 9 11 12 13 14 14 14 12 10 9 8 6 4 4 4 4 4 3 2 2 3 3 3 3 3 2 3
5 5 5 5 8 11 12 14 15 15 14 15 15 14 13 12 12 12 12 12 11 11 10 10 11 10 9 8 8 7 6 5 6 7 7 7 6 6 7 7 6 4 3 2 2 2 2 2 2 2 3 3 4 4 5 4 6 8 10 11 12 14 16 16 16 14 12 10 9 7 6 5 5 5 5 6 5 5 5 5 4 4 4 3 3
4 4 4 4 7 10 11 12 14 14 14 15 15 15 14 13 12 11 11 12 12 12 12 12 11 10 8 8 8 8 7 6 8 9 8 8 8 8 8 8 7 7 6 4 4 3 2 2 1 2 3 4 3 4 4 4 6 8 10 12 14 15 17 18 17 14 12 11 10 9 8 7 7 6 6 7 8 8 8 7 7 6 6 5 5
4 3 3 4 6 8 9 11 12 13 14 15 15 15 14 13 12 12 11 12 12 13 13 13 11 10 9 8 7 6 7 8 9 9 9 9 9 9 9 8 8 7 5 4 3 2 2 2 2 3 3 3 3 3 3 4 6 9 11 13 14 16 18 18 16 13 12 12 10 9 9 8 8 8 8 8 8 9 10 10 10 9 10 10 9
3 3 3 4 5 5 6 8 10 11 12 13 13 13 13 11 12 12 12 11 12 12 13 13 11 10 8 7 7 7 9 10 10 9 9 9 9 9 8 6 6 5 4 4 3 3 2 2 3 4 3 3 3 3 3 4 7 9 11 13 15 17 17 16 14 12 12 11 10 9 9 9 9 9 9 9 9 10 11 12 12 10 9 11 11
4 4 4 4 4 5 6 7 7 9 11 12 12 12 12 11 11 12 12 11 11 12 13 13 11 10 8 8 9 10 10 11 11 9 9 9 9 8 7 5 5 4 4 4 3 3 2 2 3 4 4 4 3 3 3 5 7 9 11 14 16 18 17 15 13 12 11 11 11 11 11 11 11 10 10 10 11 11 12 12 12 11 9 9 10
6 5 4 4 5 6 6 7 8 9 11 11 11 12 12 11 10 11 11 11 11 12 13 12 11 10 9 8 11 12 12 12 10 9 9 8 7 6 5 5 4 3 3 3 2 2 2 3 4 4 4 4 3 2 2 4 6 9 12 15 18 19 17 15 12 12 13 13 13 14 14 14 13 13 12 12 12 12 12 11 11 10 10 10 11
5 4 4 4 5 5 7 9 9 10 12 12 12 12 12 11 11 11 11 11 12 13 13 12 11 11 9 9 12 13 12 11 9 9 9 7 6 5 4 4 3 2 2 2 2 2 3 4 4 3 3 3 3 2 2 4 6 9 13 16 19 19 17 15 13 13 14 15 16 17 17 17 16 15 14 14 13 12 11 10 10 10 10 10 10
4 4 5 6 5 5 7 9 10 10 10 10 10 10 10 11 11 12 12 13 13 14 13 11 11 11 10 10 12 12 11 10 9 8 7 6 5 4 3 2 1 2 2 2 2 3 4 5 4 3 3 3 3 2 1 3 6 9 13 17 19 18 17 16 16 16 17 17 18 18 18 18 17 15 15 14 13 12 12 11 10 10 10 10 10
5 5 5 6 6 6 7 9 10 10 10 9 9 9 9 10 12 13 13 13 14 15 13 12 11 11 11 11 11 11 11 9 8 7 6 5 5 3 3 2 0 1 1 2 2 3 4 4 4 3 3 4 4 2 2 4 6 10 13 16 18 17 17 17 18 19 20 21 21 21 20 18 16 15 14 14 13 13 12 11 10 10 10 10 11
5 5 5 6 6 6 8 9 9 9 10 10 10 10 10 11 13 14 13 13 15 15 13 12 12 11 11 11 11 12 11 9 8 7 5 5 4 3 2 1 0 0 1 2 2 3 3 2 2 2 2 4 4 2 2 3 7 10 12 15 16 16 16 17 18 20 22 23 24 24 22 19 17 15 14 14 13 12 11 10 10 10 10 11 12
4 5 5 5 5 6 7 9 10 11 11 11 11 11 12 13 14 15 15 14 15 15 14 13 12 11 11 12 12 12 11 9 7 5 4 3 2 2 2 1 1 0 0 2 2 3 3 2 1 0 2 4 3 2 1 3 7 10 12 13 14 15 16 17 19 21 23 25 25 24 22 19 18 17 16 15 14 12 11 12 13 13 13 14 14
5 6 6 6 6 6 7 10 12 14 14 14 14 13 14 14 16 17 17 16 16 15 14 13 12 11 11 12 13 12 9 7 6 4 3 2 2 1 2 2 1 1 1 1 1 2 2 1 2 1 3 4 3 2 2 5 8 9 10 12 13 15 17 19 21 23 24 24 24 22 20 19 17 17 17 17 16 14 14 14 16 17 17 18 17
5 6 7 7 8 10 12 14 16 18 18 17 16 15 16 17 18 18 18 17 16 15 15 14 12 12 12 13 12 10 9 8 7 5 3 2 2 2 2 1 1 3 3 3 3 2 1 1 1 0 2 3 1 3 4 5 8 9 11 12 13 15 17 20 22 24 23 22 20 20 20 19 18 17 17 17 16 16 16 17 18 19 20 20 19
6 7 7 8 10 13 16 17 19 20 19 17 16 16 17 17 17 19 19 18 17 16 15 14 13 13 13 13 12 10 9 8 7 4 2 2 1 2 2 3 3 4 5 5 5 4 4 4 3 2 1 1 2 4 5 6 9 10 11 13 14 16 19 22 22 21 19 18 18 19 19 20 19 18 18 17 17 17 18 20 21 22 23 23 22
5 6 7 9 13 16 16 16 16 17 17 16 15 15 15 14 16 18 19 18 17 16 14 13 14 14 14 13 11 10 9 7 5 2 1 1 1 2 4 5 5 6 6 6 6 5 5 5 4 2 1 1 3 4 6 8 10 11 11 13 15 18 21 21 19 17 16 17 18 17 18 18 19 19 17 16 16 16 18 21 23 24 24 24 23
5 7 9 12 16 17 15 14 15 16 17 16 15 15 14 14 16 18 18 17 16 15 14 14 14 13 13 12 10 9 8 7 3 0 1 1 3 6 7 7 7 8 7 7 7 6 5 4 2 1 1 2 3 6 8 10 10 11 12 15 17 19 19 18 17 17 17 18 17 16 16 16 16 17 17 17 17 17 19 21 23 23 22 21 19
8 11 13 14 15 14 13 13 15 17 18 17 16 15 13 13 15 17 17 16 15 14 14 14 13 12 12 11 10 10 9 5 1 2 3 4 7 8 9 8 8 8 8 7 6 6 4 3 2 1 1 3 5 7 8 8 9 11 14 16 17 17 17 18 18 18 17 16 15 14 15 16 16 17 18 18 17 18 20 21 20 20 21 20 19
10 13 14 13 13 12 12 12 14 17 17 17 16 15 13 13 16 17 16 15 14 14 14 13 11 11 12 12 12 11 8 3 1 4 6 8 9 10 10 9 8 7 7 6 5 5 4 3 2 1 2 4 5 6 7 8 10 13 14 14 15 17 19 20 20 18 16 15 14 14 15 16 17 18 18 18 17 18 19 19 18 18 19 19 19
10 12 13 14 14 13 12 12 14 17 17 16 16 15 14 14 16 16 15 14 14 13 13 12 12 12 13 13 12 10 6 3 4 8 10 10 11 11 11 9 6 6 6 6 5 4 3 3 2 2 2 2 3 5 7 9 11 11 12 14 16 18 19 19 20 19 17 16 14 14 15 16 16 17 18 18 19 18 19 18 17 17 18 18 18
10 11 12 14 14 12 10 10 11 13 14 15 15 14 15 15 16 16 15 14 14 14 13 13 13 13 13 12 9 6 4 5 8 11 12 12 11 11 10 7 6 6 6 5 4 2 2 3 3 3 3 4 6 8 9 10 10 11 12 15 17 17 18 19 20 20 19 18 17 16 17 18 19 20 21 21 21 21 21 20 19 17 17 18 18
11 12 13 15 14 12 12 11 10 11 13 15 15 15 15 15 15 16 16 15 15 14 14 14 14 14 13 9 4 3 5 9 12 13 13 12 11 9 7 6 6 6 5 5 4 3 3 4 4 4 5 6 8 9 9 10 11 12 14 15 16 16 18 19 20 19 20 20 20 20 22 23 24 25 25 25 23 22 22 22 21 20 19 18 18
11 13 15 17 16 14 14 15 16 17 17 16 16 16 16 15 14 16 16 15 15 15 15 15 15 14 11 5 2 4 9 12 14 14 13 12 10 8 7 6 6 5 5 6 6 5 4 4 4 5 6 7 8 9 10 11 13 13 13 14 15 16 17 19 19 20 20 21 22 24 26 27 27 27 26 24 23 22 22 21 19 18 19 19 18
14 16 19 21 20 19 19 20 20 20 20 18 18 18 17 15 15 16 15 15 15 16 15 16 16 13 8 4 5 8 12 14 14 13 12 11 10 9 7 6 5 5 7 8 8 7 6 6 6 7 7 7 8 9 11 13 14 13 13 14 15 16 16 17 18 20 21 23 25 26 28 28 28 27 26 24 23 22 20 18 17 17 18 19 18
15 18 21 22 22 21 21 21 21 21 20 19 19 18 16 16 16 15 14 15 16 17 17 17 16 12 6 5 8 12 14 15 14 11 11 11 11 9 8 6 5 7 8 9 9 9 9 9 9 8 7 7 8 11 13 13 13 13 13 14 15 14 14 16 18 20 22 24 25 25 27 28 28 27 26 24 22 20 17 17 18 18 17 16 15
16 18 18 16 17 19 19 19 19 19 19 18 18 18 16 16 16 15 14 16 18 18 19 18 15 11 10 12 15 16 16 15 13 11 10 11 11 9 7 7 7 8 9 10 10 10 10 9 8 7 7 8 10 13 13 12 12 12 13 14 14 13 14 17 19 20 21 23 23 24 26 28 28 28 28 25 22 20 16 16 18 18 16 15 16
13 12 8 4 4 10 15 15 14 16 19 19 18 19 18 17 16 15 15 17 19 20 19 17 14 13 16 19 19 19 18 15 13 11 10 10 10 9 8 9 9 9 10 10 9 9 9 9 8 7 8 10 13 14 12 11 12 12 13 14 13 13 16 18 18 20 22 23 23 25 28 29 28 27 27 25 23 21 18 16 16 17 17 17 17
15 14 11 6 5 7 9 12 12 14 19 23 22 19 17 15 13 12 13 15 19 20 18 16 15 16 19 20 20 19 18 15 13 12 11 10 9 10 11 11 11 11 10 9 8 8 9 8 8 8 9 11 13 13 12 12 12 12 13 14 13 15 17 18 20 23 24 24 25 27 29 29 27 26 25 24 23 23 21 18 16 16 17 17 16
19 17 17 18 17 14 13 14 14 13 16 22 23 19 17 16 14 13 13 13 13 13 12 13 15 19 20 20 19 18 17 15 14 13 12 12 12 12 13 12 12 11 10 8 7 8 9 8 8 9 10 12 13 13 13 13 13 13 14 14 14 16 18 19 23 25 25 25 27 29 29 28 27 26 25 23 22 23 21 19 16 16 17 17 16
23 21 18 18 20 19 18 20 20 17 16 18 23 23 20 19 18 16 17 16 12 8 7 10 14 19 20 19 19 18 17 16 16 14 14 14 13 13 13 12 11 10 9 8 8 9 9 7 7 9 11 12 13 12 12 12 12 12 13 14 15 17 18 21 24 25 25 26 28 29 28 27 25 25 23 21 20 21 21 19 18 17 17 17 15
23 21 19 18 19 19 19 20 21 21 17 16 23 27 24 21 20 19 20 22 20 15 11 11 15 19 20 19 19 18 17 17 18 18 17 17 15 12 11 10 10 9 7 7 9 10 8 6 7 9 9 10 11 10 10 10 10 10 11 13 15 16 18 22 25 25 25 27 28 27 25 23 23 23 21 19 20 21 20 20 20 19 17 16 13
23 22 20 19 18 18 19 18 19 21 20 17 19 26 26 23 23 22 22 23 23 19 16 16 18 20 20 20 19 19 19 19 19 19 18 18 16 13 10 9 7 6 6 7 8 8 7 6 7 8 8 8 8 9 10 10 10 10 11 13 15 17 19 22 24 25 27 28 27 25 23 21 21 20 18 17 19 20 19 20 22 19 16 13 11
Wind_Direction
233 234 237 234 225 212 207 207 206 207 211 216 221 226 232 234 233 234 235 234 232 232 231 231 232 234 237 239 242 241 241 243 246 249 251 254 256 255 254 252 243 230 226 234 253 270 276 282 286 288 295 303 309 307 310 319 323 330 344 347 346 348 351 349 344 336 327 333 338 337 345 341 286 260 254 250 246 246 249 247 241 238 237 233 232
216 231 234 235 233 220 209 204 204 208 208 210 213 214 221 231 235 239 240 236 235 235 232 231 233 234 236 238 242 244 245 246 247 250 252 253 252 251 249 242 230 224 228 244 265 273 274 279 282 284 297 299 303 308 309 320 334 343 349 350 349 347 348 351 351 344 330 332 334 331 346 354 317 266 269 270 257 250 249 247 247 245 243 241 238
205 231 235 228 227 220 214 209 208 214 216 213 211 211 217 225 233 238 238 237 238 236 232 232 235 236 237 239 243 246 248 249 250 252 251 250 250 248 240 228 221 223 237 258 271 272 270 273 281 287 290 290 301 311 309 317 337 347 349 347 348 349 349 348 351 350 333 328 330 321 344 350 335 317 331 319 285 258 249 243 244 246 250 248 244
203 231 238 226 231 219 209 216 215 215 217 215 211 213 219 226 233 235 236 237 237 234 232 234 235 237 238 240 243 248 252 252 251 249 247 247 245 236 222 215 220 237 257 271 276 276 274 278 295 299 289 290 305 311 306 314 331 337 340 343 342 345 348 342 341 347 345 340 339 315 317 345 331 330 336 335 320 270 251 245 245 245 250 252 248
190 221 222 155 253 253 226 220 219 217 215 212 207 207 214 222 230 234 233 231 230 231 233 234 234 236 238 241 244 247 249 248 244 239 237 233 225 213 208 214 227 254 269 277 282 277 271 279 298 302 294 298 302 301 307 316 323 326 328 336 339 341 344 337 335 344 347 346 317 292 313 349 311 332 333 332 342 319 265 253 253 248 250 253 254
186 218 205 152 196 247 256 234 220 218 214 205 195 194 204 212 221 226 221 214 218 227 229 228 229 231 234 236 235 235 237 237 234 232 226 217 206 199 206 220 227 247 266 279 286 271 265 281 303 303 295 296 291 301 323 317 312 311 314 323 331 341 342 334 335 341 342 345 334 293 268 264 275 324 341 318 329 335 308 283 267 254 254 252 255
185 187 168 171 181 197 236 238 224 215 205 192 185 186 196 205 217 220 207 200 211 218 220 218 221 226 228 229 227 226 226 226 229 230 220 212 203 197 206 218 216 232 271 290 286 271 272 289 309 301 285 277 277 329 334 322 309 298 300 318 328 341 340 336 343 344 341 349 350 327 282 267 273 292 298 302 327 329 337 332 298 259 258 250 251
175 140 130 170 178 195 227 237 225 214 200 186 185 184 190 207 224 221 199 198 211 221 233 238 244 248 245 242 243 240 235 230 232 231 218 209 201 197 206 209 212 242 266 283 282 273 281 284 280 298 263 242 320 344 343 336 328 305 294 322 318 322 331 340 353 352 345 351 352 340 318 299 284 275 271 272 288 300 320 330 324 312 283 259 255
132 127 134 148 164 190 216 222 211 211 202 190 188 183 186 210 231 232 215 219 239 252 255 259 264 264 260 257 256 256 253 247 245 242 226 216 206 201 206 212 244 268 265 276 282 281 288 273 129 29 266 299 341 346 348 344 353 12 6 330 317 317 336 353 4 11 10 9 7 359 347 338 328 298 283 269 254 269 298 313 321 326 322 313 298
107 116 124 132 145 167 183 181 182 189 186 184 184 180 181 202 233 245 246 232 231 251 257 261 262 262 261 261 261 259 255 247 242 237 225 219 214 211 223 246 266 271 268 281 286 281 269 220 117 47 330 360 356 349 350 358 31 62 58 27 23 22 20 17 15 23 26 22 19 18 12 1 351 340 320 285 248 247 261 287 307 321 323 338 359
109 113 117 127 137 151 159 157 156 158 162 169 172 175 177 184 215 244 269 85 109 163 265 271 268 268 263 259 261 260 250 237 229 219 208 205 208 217 235 249 249 254 264 274 274 262 214 145 84 58 344 331 334 45 38 54 73 68 52 37 31 26 25 23 17 11 10 7 9 15 17 12 0 334 325 314 254 236 253 283 308 327 309 311 349
126 125 130 134 134 142 147 144 141 141 144 150 156 159 158 158 166 175 130 89 109 151 200 255 266 272 266 259 258 255 242 227 219 211 200 195 196 212 231 236 240 248 246 248 253 203 145 120 99 132 360 304 186 107 73 80 85 43 14 1 2 17 21 15 15 14 9 355 352 1 2 1 353 333 325 317 284 266 266 265 309 335 323 307 333
136 136 144 146 142 150 150 143 139 141 144 147 148 147 144 143 145 141 146 156 138 139 152 211 254 265 269 261 251 238 226 219 216 213 203 190 188 205 220 225 232 231 224 244 242 136 137 149 160 146 93 89 140 145 119 113 88 335 341 342 358 33 24 16 18 18 13 357 348 349 338 326 316 306 295 298 306 280 261 254 296 318 294 303 324
135 139 147 155 158 162 156 146 145 147 149 150 148 147 144 140 142 143 143 144 136 137 141 139 137 92 61 326 236 221 219 212 202 202 196 182 184 199 205 198 197 200 198 210 190 163 168 171 159 136 101 79 71 139 189 194 296 335 355 359 12 27 14 12 10 4 360 352 349 348 337 319 297 290 278 270 285 277 264 256 279 300 284 294 313
122 133 147 162 166 163 154 147 149 150 148 148 147 145 144 141 143 144 142 143 141 137 127 107 104 93 77 80 203 210 216 205 186 189 180 171 177 184 178 170 174 175 161 162 168 169 173 173 167 153 118 26 19 63 141 202 340 15 32 28 26 20 6 0 2 2 0 359 4 3 351 334 288 278 272 263 256 268 275 263 252 268 296 308 313
132 140 152 166 169 164 155 149 150 149 147 149 148 146 150 147 142 142 141 139 130 118 108 101 106 103 95 101 137 160 148 133 143 148 148 155 162 162 159 154 146 145 148 154 160 168 176 182 180 180 200 313 344 348 346 18 24 29 33 29 27 22 12 7 8 9 13 19 29 36 39 46 40 26 348 331 359 266 292 278 247 222 226 284 329
151 158 164 171 170 168 164 159 158 158 156 158 158 159 159 151 143 140 137 129 117 109 103 98 99 100 100 101 104 119 122 117 123 127 135 144 149 152 146 143 142 143 148 153 163 177 185 193 204 221 247 278 289 281 343 30 28 30 33 31 28 23 16 14 12 10 15 24 34 44 52 54 44 38 39 47 55 39 29 36 320 235 213 225 242
155 162 166 172 171 170 167 167 169 168 167 166 166 168 161 150 143 137 131 123 115 107 100 93 90 91 93 91 89 91 90 90 97 105 120 133 142 150 149 150 151 154 161 165 176 193 206 230 255 269 272 266 226 161 77 50 44 45 44 39 33 24 16 14 9 2 4 7 12 28 40 45 47 42 35 34 35 21 8 9 1 349 277 224 208
164 167 174 178 175 175 170 169 173 173 174 174 170 169 160 149 142 133 128 122 115 108 101 94 89 90 90 86 83 81 79 79 86 111 148 159 164 171 173 174 173 173 177 181 195 213 230 252 256 249 207 152 134 104 71 60 59 54 47 40 33 25 16 11 4 356 352 351 354 3 22 37 43 41 39 24 352 340 330 319 314 308 297 270 232
182 178 183 184 180 181 176 173 177 177 177 176 172 169 161 152 145 137 132 126 118 110 103 99 96 98 97 93 88 86 82 79 87 113 142 155 169 188 190 182 179 180 182 187 200 213 225 213 179 157 139 127 112 84 69 66 61 51 43 35 27 20 12 2 354 349 346 342 343 349 2 18 22 17 13 3 333 301 294 292 284 274 265 259 250
192 185 184 185 182 183 180 178 178 178 176 175 173 169 164 160 154 145 138 132 124 117 110 107 108 108 102 98 97 90 82 81 92 102 110 115 132 160 166 163 158 145 132 123 107 101 125 147 146 139 124 110 94 76 71 66 56 46 36 28 20 13 6 355 347 345 346 344 339 338 342 346 347 346 346 342 331 315 297 280 270 262 247 230 237
195 195 185 182 182 181 177 172 173 174 174 176 176 174 170 166 160 153 144 134 128 123 120 117 115 112 104 102 101 91 87 100 107 106 103 102 112 125 131 132 123 111 104 101 101 111 133 149 142 127 114 101 90 86 80 63 49 38 28 22 15 8 1 352 346 347 349 347 339 331 330 332 331 326 323 321 319 318 313 298 280 265 253 245 245
194 191 185 186 188 180 168 163 167 171 175 178 181 181 177 170 162 158 148 135 129 126 124 123 119 112 103 102 104 99 110 128 126 115 110 109 113 118 119 118 113 107 105 108 117 134 146 154 140 119 110 105 110 106 86 55 38 29 22 17 12 5 358 351 348 350 349 347 343 335 332 333 331 325 319 316 312 314 320 318 305 283 265 261 263
199 189 186 181 177 161 153 160 165 169 177 183 184 183 181 174 164 158 149 139 133 130 128 127 120 109 96 96 110 118 128 140 135 122 119 118 118 119 117 113 108 106 113 119 127 139 147 153 136 120 119 132 133 114 76 47 33 25 19 14 8 1 355 350 349 350 350 351 351 347 345 345 341 336 331 328 325 322 324 329 326 314 291 280 280
197 196 189 167 147 133 147 166 167 169 181 188 188 184 182 178 169 158 150 143 137 134 134 130 118 104 89 94 118 130 138 144 140 130 128 126 124 122 119 113 110 110 118 126 130 129 133 145 138 128 135 146 139 112 67 41 31 24 17 10 4 358 350 345 347 352 355 356 355 353 352 350 348 347 343 338 336 331 328 329 329 326 318 305 299
200 198 182 148 124 126 153 172 175 179 188 193 191 184 181 180 175 164 155 148 142 139 137 129 114 100 89 102 129 139 143 145 142 136 136 134 132 130 124 116 111 111 122 128 126 115 117 133 134 129 138 148 144 119 64 38 28 19 12 6 1 356 349 342 342 346 347 348 347 344 342 340 340 340 339 337 336 334 330 326 323 319 314 307 303
198 183 155 126 114 137 166 178 183 188 195 197 193 187 183 183 182 176 166 155 148 146 141 129 116 105 100 118 139 145 146 144 141 139 140 140 137 132 124 117 115 127 130 118 106 108 116 123 124 127 149 163 158 137 66 37 24 12 7 5 3 0 358 357 356 351 347 343 338 334 331 329 329 330 330 329 329 331 328 322 317 312 308 305 304
188 168 145 129 129 153 172 179 185 190 198 201 197 190 187 188 190 184 174 163 155 152 145 133 125 119 116 129 144 148 147 144 142 140 138 135 132 125 114 112 125 146 132 111 117 132 129 124 120 126 156 176 172 157 51 15 9 5 5 7 7 6 6 6 5 1 357 352 345 338 331 326 325 326 325 323 322 323 322 319 317 315 313 312 313
186 171 149 141 148 161 169 175 180 183 190 196 196 191 189 194 196 190 179 168 162 158 152 142 136 132 131 138 147 151 150 147 145 143 141 137 131 119 105 100 127 177 138 129 153 161 150 136 123 120 148 175 185 207 313 339 355 3 5 6 6 4 2 0 358 355 352 349 346 341 336 329 325 322 320 320 319 316 316 319 322 324 324 323 324
182 160 146 144 148 156 163 165 166 174 182 188 192 189 188 194 197 194 187 175 168 166 159 151 146 142 141 147 155 157 154 152 150 146 144 141 130 113 97 74 354 274 178 174 182 190 183 168 124 109 152 188 201 222 275 324 352 1 2 1 358 354 354 354 350 347 344 341 339 336 333 330 325 322 321 322 321 315 313 313 315 318 318 318 322
163 139 137 131 130 144 156 155 160 173 181 186 192 189 188 196 198 197 194 183 176 173 165 157 152 147 148 153 159 160 155 152 150 143 139 136 123 95 60 22 13 54 195 204 214 214 196 193 332 351 200 207 209 214 265 339 357 359 354 350 347 345 347 347 344 340 336 334 333 331 330 329 328 327 327 326 323 317 313 311 311 314 314 313 314
149 136 136 130 134 150 161 164 171 179 183 188 192 188 190 199 201 200 197 187 182 179 169 162 157 151 153 157 161 161 155 148 145 139 131 112 73 21 2 3 37 98 108 137 162 180 181 248 306 276 214 208 221 275 328 351 355 348 338 335 337 340 342 342 340 335 331 330 331 331 331 331 330 329 326 323 320 314 310 307 306 308 305 302 301
141 136 144 144 153 167 176 181 185 187 188 190 193 190 194 203 203 200 195 189 187 183 172 164 158 155 158 162 164 163 156 156 158 151 132 93 51 358 356 39 104 119 114 108 107 113 110 26 6 164 202 215 255 322 336 341 335 327 323 326 331 337 339 338 335 331 330 332 335 334 333 333 332 327 322 320 317 313 311 307 303 302 299 297 298
135 142 151 151 160 176 188 193 193 193 191 191 196 197 199 206 205 198 193 191 190 184 174 165 158 158 164 168 171 169 165 168 168 156 130 99 55 16 54 100 119 118 111 101 98 100 95 84 83 105 177 249 333 329 323 317 313 313 316 322 330 336 336 334 333 333 336 338 338 334 330 328 327 325 324 323 321 318 314 310 306 303 303 304 304
139 149 156 159 170 182 193 195 194 195 191 191 198 199 199 208 207 198 193 192 190 184 175 166 160 163 171 174 175 175 173 171 165 139 85 95 119 95 105 119 118 111 107 102 99 94 89 88 91 115 134 7 342 318 307 302 302 309 319 328 335 336 335 335 337 341 341 337 334 330 325 325 326 329 333 334 330 323 317 314 312 311 312 313 312
155 161 169 175 181 187 191 190 190 193 193 195 199 198 202 212 209 198 194 192 190 184 176 169 166 168 174 176 180 184 178 172 171 52 37 105 126 118 120 123 115 108 105 102 101 95 88 90 93 89 37 351 323 309 304 299 302 317 330 336 338 338 338 341 343 342 337 335 335 334 332 333 335 338 341 341 338 333 327 324 324 324 323 322 322
168 179 186 187 187 188 189 190 191 192 195 199 200 198 205 213 206 198 195 193 191 186 179 174 170 170 175 181 188 187 179 174 169 47 85 123 131 125 124 125 118 109 105 102 104 106 107 112 113 97 306 295 304 311 311 310 319 333 339 341 342 342 343 344 343 341 337 336 340 343 342 341 342 342 342 341 340 338 334 332 331 329 328 327 327
169 176 182 183 184 188 193 195 192 192 197 201 200 199 205 208 203 198 196 194 193 188 182 178 175 176 182 185 185 182 179 174 97 106 122 133 134 130 127 124 116 110 110 112 113 113 113 109 92 37 301 297 310 324 332 336 341 345 347 348 347 344 344 345 345 345 343 342 344 348 348 345 343 343 342 340 338 336 333 332 329 328 327 326 327
171 174 175 176 180 186 192 193 190 191 196 201 201 199 201 204 202 198 197 198 197 191 187 186 186 189 190 187 185 186 181 142 125 130 132 133 133 130 127 123 119 118 122 121 113 102 93 75 48 28 4 351 357 359 357 356 359 360 355 349 345 343 343 346 348 348 346 346 346 348 349 347 342 339 337 336 334 331 328 328 326 322 321 322 326
165 174 176 175 175 174 170 172 181 189 194 198 199 198 200 203 202 197 198 201 199 196 195 194 195 198 196 192 192 192 160 124 134 138 134 132 133 131 130 131 126 124 125 119 105 84 70 67 64 58 46 28 20 19 15 14 15 7 351 343 343 345 346 347 348 347 346 346 346 343 342 341 338 334 331 330 328 326 322 320 318 314 313 317 322
163 168 166 161 157 148 140 147 167 181 189 195 196 196 201 204 200 198 202 203 201 199 196 194 196 200 199 196 193 166 133 126 134 137 133 132 134 134 136 135 122 116 116 109 98 86 75 76 73 52 33 27 30 34 31 23 10 355 344 342 345 348 347 345 343 343 343 344 343 340 339 338 336 333 330 327 325 324 322 319 315 310 306 311 315
150 156 155 147 140 140 152 168 177 176 179 189 193 194 198 202 201 203 207 207 202 197 193 191 193 195 196 194 168 144 139 135 135 135 132 133 139 143 142 132 119 111 107 104 98 85 74 70 61 46 42 45 49 43 26 9 357 349 349 350 351 349 346 342 341 343 344 344 341 339 339 338 335 332 330 328 326 325 325 325 323 314 304 303 306
146 151 155 153 152 161 174 182 183 176 173 180 188 190 192 198 205 209 210 208 201 195 190 186 182 182 186 181 156 146 142 142 142 140 138 141 145 145 138 129 124 118 113 105 91 74 66 66 62 61 62 61 53 31 10 357 354 357 1 358 354 351 348 347 347 347 346 344 341 340 340 339 337 334 331 329 328 328 331 335 336 327 314 306 304
153 158 165 167 166 169 173 180 186 180 172 176 184 187 189 198 207 210 208 203 199 194 188 178 171 172 183 178 159 152 150 149 148 147 148 149 148 144 137 133 130 123 111 97 79 65 63 68 70 71 71 59 34 14 2 357 1 7 6 359 356 356 356 355 352 349 348 345 342 341 343 344 343 341 337 333 332 335 341 344 340 336 332 327 321
162 165 171 173 168 164 167 178 188 182 170 172 182 185 191 202 209 209 206 200 196 193 187 177 170 168 167 164 161 159 157 154 154 159 160 154 153 154 148 140 133 119 102 87 73 61 60 69 74 68 56 39 19 8 4 8 12 9 2 358 359 1 359 355 351 349 348 344 340 341 346 347 347 347 346 342 339 342 344 342 339 340 343 343 337
147 137 128 119 162 170 168 174 187 184 172 172 182 190 197 208 211 207 205 201 197 195 189 179 172 163 156 157 161 161 159 158 161 165 161 157 162 163 150 139 130 112 95 80 67 58 59 68 70 55 38 24 15 12 13 16 13 4 359 0 0 357 354 351 350 350 347 344 343 345 346 346 345 347 347 345 346 349 344 335 337 345 346 343 340
110 110 117 142 212 220 188 175 187 194 181 177 182 189 195 200 199 194 201 205 200 195 188 178 169 162 159 160 163 161 160 161 162 159 155 156 161 156 139 129 121 108 93 79 64 55 56 62 57 41 26 14 12 16 20 16 7 1 2 2 356 350 350 350 352 351 348 348 348 347 345 344 344 345 348 349 352 354 347 336 337 345 345 341 340
124 143 163 179 193 203 196 185 193 207 197 182 175 176 182 185 180 178 191 203 203 193 187 181 170 164 164 167 168 166 164 161 156 153 151 149 149 141 128 118 113 103 91 80 67 55 54 58 49 30 13 4 9 19 22 11 360 357 1 360 354 353 355 356 355 352 349 349 349 346 345 346 346 346 349 353 355 354 350 344 344 346 344 343 345
150 168 182 189 193 195 193 190 193 203 208 188 172 172 183 185 180 178 182 187 189 188 197 201 183 169 168 172 173 170 167 159 152 150 146 143 142 136 124 118 116 106 89 74 56 48 54 57 42 22 7 1 8 20 18 3 354 355 359 358 358 360 1 359 356 352 349 349 348 345 345 346 346 347 349 351 353 354 353 352 352 350 347 347 350
166 179 191 197 198 196 198 199 195 196 207 202 180 176 182 183 178 176 178 181 182 178 180 197 192 177 174 178 175 171 167 160 155 152 147 144 144 141 131 127 126 116 95 66 44 43 55 57 35 23 17 12 14 17 9 356 354 358 359 358 0 2 1 357 354 352 351 350 346 343 343 345 346 349 351 352 355 356 355 354 354 353 353 353 351
175 188 200 202 198 196 199 207 203 196 206 218 199 180 177 175 173 172 178 185 184 170 163 181 192 186 182 182 177 172 168 164 160 158 153 150 152 154 151 145 137 120 93 62 42 42 57 52 27 22 29 30 23 13 4 358 355 355 354 356 359 0 358 356 354 353 353 351 347 343 343 346 350 352 353 354 355 355 356 355 353 353 354 353 349
Height
787 789 790 792 794 795 797 798 799 800 800 801 802 804 805 806 806 806 806 808 809 810 811 812 812 813 813 814 814 814 815 815 815 815 816 816 817 818 818 819 819 820 821 822 822 822 823 823 823 823 822 822 822 822 822 821 820 820 819 819 818 817 816 815 815 814 812 811 809 808 807 807 807 807 807 808 808 809 809 810 810 811 812 814 815
787 788 789 791 793 794 796 796 798 799 799 800 802 803 805 805 805 805 805 807 807 808 808 809 810 811 812 813 813 813 814 814 814 814 814 815 816 817 818 818 819 820 821 821 822 822 822 823 822 822 822 822 822 822 822 821 820 820 819 819 818 817 816 815 815 814 814 813 811 809 808 807 806 806 807 807 807 807 808 808 809 810 811 812 813
788 789 789 790 791 793 795 795 796 797 798 800 801 803 804 804 804 804 805 805 805 806 808 809 810 811 811 812 812 812 812 813 813 813 813 814 815 816 817 818 819 820 820 820 821 821 822 822 822 822 822 821 821 821 821 821 821 820 819 819 818 817 816 816 815 815 814 813 812 812 811 810 808 806 806 806 806 806 807 808 809 809 810 811 812
790 790 789 789 791 792 793 794 795 795 797 799 801 802 803 803 803 803 803 803 804 806 808 809 809 809 809 810 811 811 812 812 812 812 812 813 814 815 816 817 819 819 820 820 820 821 822 822 822 821 821 821 820 821 821 821 820 820 819 819 818 817 817 816 815 815 815 814 814 814 813 813 812 809 806 805 805 806 806 807 808 809 809 810 810
790 789 787 790 793 793 793 793 794 794 796 798 800 802 802 802 801 801 801 802 804 806 807 807 807 808 809 809 810 810 811 810 810 810 810 811 812 814 816 817 818 819 819 820 820 821 821 821 822 821 821 821 820 821 821 821 820 820 819 818 818 817 817 817 816 815 815 815 815 815 815 816 814 811 808 806 805 805 806 807 807 808 808 809 809
787 786 786 789 791 793 794 793 793 794 796 799 800 801 801 800 799 799 800 802 804 805 805 806 807 808 808 808 809 809 809 809 808 808 808 810 811 814 816 816 817 817 818 819 819 819 820 820 821 821 821 821 821 821 821 820 820 819 819 818 818 818 817 817 816 816 815 815 815 815 816 816 814 812 812 810 806 805 806 806 807 807 808 808 808
785 786 786 787 788 792 793 791 793 795 797 799 800 800 800 799 797 798 800 802 804 804 804 805 806 806 807 807 807 807 807 807 806 807 808 810 812 813 815 815 815 816 818 819 819 819 819 820 820 820 821 821 821 821 820 820 819 819 818 818 818 818 817 817 816 816 816 815 814 814 814 814 813 813 813 813 811 808 806 806 806 806 807 807 806
786 788 788 788 789 790 790 790 793 795 797 799 800 800 800 797 795 796 800 802 803 803 803 805 805 805 805 805 806 806 806 806 806 807 808 810 811 812 814 814 814 815 818 818 819 819 819 819 819 819 821 821 821 821 820 820 819 818 818 818 818 818 817 817 817 816 816 815 814 814 813 813 813 813 812 813 814 812 809 806 806 805 805 805 805
785 788 789 789 790 790 790 791 793 795 796 797 799 799 798 796 794 795 800 803 803 802 801 803 804 802 802 802 803 804 805 806 806 807 807 808 810 812 813 813 814 816 818 819 819 820 819 818 818 819 820 821 821 821 820 820 819 818 818 818 818 817 817 817 817 817 816 815 814 814 813 812 812 812 812 812 812 813 811 808 806 805 804 804 804
785 787 788 788 789 790 790 791 792 793 794 796 797 798 798 796 794 795 800 802 803 802 800 801 802 801 800 800 801 802 803 804 805 806 806 807 809 810 811 812 814 816 818 818 820 819 818 818 817 819 821 821 821 821 821 820 819 819 819 819 818 818 817 817 817 817 816 815 815 814 813 812 812 811 812 812 811 812 812 809 807 806 805 804 803
785 786 787 787 788 788 789 790 791 792 793 795 796 797 798 797 795 795 798 801 802 802 801 800 801 801 801 800 800 801 802 803 803 804 804 806 807 809 811 812 814 816 817 818 819 818 818 817 818 820 822 821 821 821 821 820 820 820 819 819 819 818 818 817 817 817 816 815 815 814 813 813 812 812 811 811 811 811 811 810 807 806 805 804 803
785 787 787 787 787 788 789 789 790 791 792 794 795 796 797 797 797 796 797 799 800 801 802 801 801 801 801 801 800 800 801 802 802 803 804 805 807 809 811 812 814 815 816 817 817 817 817 818 819 821 821 821 821 821 821 820 820 820 820 819 819 818 818 817 817 816 816 815 814 814 813 812 812 811 811 810 810 810 810 809 807 806 805 804 803
785 787 787 786 787 787 788 788 789 791 791 793 794 794 796 796 797 797 798 799 800 801 801 801 801 800 800 801 800 800 801 801 802 803 804 805 807 809 811 812 813 814 815 816 816 816 817 818 820 821 821 821 821 821 821 821 820 820 820 819 819 818 818 817 816 816 815 815 814 813 813 812 811 810 810 810 809 809 808 807 806 806 805 804 803
785 786 786 786 786 786 787 788 788 790 790 792 793 794 795 796 797 798 798 799 799 800 801 801 801 800 800 801 801 801 801 801 803 804 805 805 807 809 810 811 812 813 815 815 816 817 818 819 820 821 821 821 821 821 821 821 820 820 820 819 819 818 818 817 816 816 815 814 813 813 812 811 811 810 809 809 808 808 807 807 806 806 805 804 803
786 787 787 786 787 787 788 788 789 790 791 792 793 794 795 796 797 798 799 799 799 800 800 801 801 801 801 801 801 802 802 802 803 804 805 806 807 808 809 810 811 813 814 815 816 818 819 820 820 821 821 821 821 821 821 821 820 820 820 819 819 818 818 817 816 815 815 814 813 812 812 811 810 809 809 808 808 808 807 806 806 806 806 805 803
787 787 787 787 787 788 788 789 790 791 792 793 794 795 796 797 798 799 800 800 800 801 801 802 802 802 802 802 802 802 803 803 804 805 805 806 807 808 809 810 811 812 814 815 817 818 819 820 820 821 821 821 821 821 821 821 820 820 820 819 819 818 818 817 816 815 814 814 813 812 811 810 810 809 809 808 808 807 807 806 805 805 806 806 805
786 786 786 786 786 787 788 789 790 791 793 794 795 796 797 797 798 799 800 801 801 802 803 804 804 804 804 804 804 804 804 804 805 806 806 807 808 809 809 811 811 813 814 815 816 817 818 819 819 820 820 821 821 821 821 821 820 820 820 819 819 818 818 817 816 816 815 814 813 812 812 811 810 809 809 808 808 808 807 806 806 805 805 806 806
787 786 785 786 786 787 788 790 791 791 793 794 795 796 796 797 798 799 800 801 802 803 804 805 805 806 806 805 805 805 805 806 806 806 807 807 808 809 810 812 812 813 814 815 816 817 818 818 819 820 820 820 821 821 821 821 821 821 820 820 819 819 818 817 816 816 815 814 813 812 812 811 810 810 809 809 808 808 807 807 806 806 805 805 805
788 786 786 786 786 787 788 790 791 792 793 794 796 797 797 797 798 799 800 801 802 804 804 805 806 806 806 806 806 806 806 807 807 807 808 808 809 810 811 812 813 814 815 815 816 817 817 818 818 819 820 820 821 821 821 821 821 821 820 820 820 819 818 817 816 816 815 814 813 813 812 811 811 810 809 809 808 808 807 807 806 806 805 804 804
787 785 785 785 785 787 787 789 790 791 793 794 795 797 797 798 799 799 800 801 802 804 804 805 806 807 807 807 807 808 808 808 808 808 809 809 810 811 811 813 813 814 815 816 817 817 818 818 819 819 820 820 821 821 822 822 821 821 821 820 820 819 818 817 816 816 815 814 813 812 812 811 810 810 809 809 808 807 807 806 806 805 804 804 803
785 785 785 785 786 787 788 790 791 792 794 794 795 797 797 799 800 800 800 801 802 803 804 806 807 808 808 808 809 809 809 809 809 809 810 810 811 811 812 813 814 815 816 816 817 818 818 819 819 820 820 821 822 822 822 822 821 821 821 821 820 819 818 817 816 815 814 813 813 812 811 810 810 809 809 808 807 807 806 806 805 805 804 804 803
786 786 786 787 787 789 790 791 793 794 796 797 797 798 798 799 800 801 802 802 802 803 804 806 807 808 809 809 810 810 810 810 810 810 811 811 812 813 814 815 815 816 817 817 818 819 819 820 820 820 821 822 822 822 822 822 822 822 821 820 820 819 818 817 815 814 813 813 812 811 811 810 809 809 808 808 807 806 805 805 804 804 803 802 802
786 786 787 788 788 790 792 793 795 796 797 798 799 800 800 800 801 802 803 803 803 804 804 806 807 808 809 810 810 811 811 811 812 812 813 814 814 815 816 817 817 818 818 819 819 820 820 820 821 821 822 822 822 822 822 822 822 821 821 820 819 818 817 816 815 814 813 812 812 811 810 809 809 808 807 807 806 805 804 804 803 802 802 801 800
786 787 787 789 790 793 795 796 797 798 799 801 801 802 803 803 803 803 804 804 804 805 805 806 807 808 810 810 811 812 812 813 814 814 815 816 816 817 818 818 819 819 819 820 820 820 821 821 821 821 822 822 822 822 822 822 821 821 821 820 819 818 817 816 815 814 813 812 811 811 810 809 808 807 806 806 805 804 803 802 802 801 800 800 799
787 787 787 789 791 794 796 797 799 800 801 802 802 804 804 805 805 804 805 806 806 806 807 807 808 809 810 811 812 813 814 815 816 816 817 817 818 818 819 820 820 820 820 821 821 821 821 821 822 822 822 822 822 822 822 822 822 821 821 820 819 818 817 816 815 814 813 812 811 810 809 809 807 806 806 805 804 803 802 801 801 800 799 798 798
786 787 788 791 793 796 797 798 799 800 801 802 803 804 805 806 807 806 806 807 807 808 808 808 809 810 811 812 813 814 815 816 817 818 819 819 820 820 820 821 821 821 821 821 821 821 821 822 822 822 822 822 822 822 822 822 822 821 821 820 819 818 817 815 815 814 813 812 811 810 809 808 807 806 804 804 803 802 801 800 799 799 798 797 796
786 788 790 793 795 796 797 797 798 799 800 802 803 804 805 806 807 808 808 808 809 809 810 810 810 811 812 813 814 815 816 817 818 819 820 820 821 821 821 821 822 822 822 822 822 822 821 821 822 822 822 822 822 822 822 822 822 821 821 820 819 818 817 815 814 814 813 812 810 809 808 807 805 804 803 802 801 800 800 799 798 797 796 795 794
787 789 791 794 796 796 796 797 798 799 801 803 804 805 806 807 808 809 809 809 809 810 810 811 811 812 813 814 815 816 817 818 819 820 820 821 821 822 822 822 822 822 822 822 822 822 822 821 822 822 822 822 822 822 822 822 821 821 820 819 818 817 816 815 814 813 812 811 810 808 807 805 804 803 802 801 800 799 798 797 796 795 795 794 793
788 791 792 794 795 795 796 797 798 800 802 803 805 806 806 808 809 810 810 809 810 810 811 811 812 813 814 815 816 817 818 818 819 820 820 821 821 821 821 822 822 822 822 822 822 822 822 821 821 822 822 822 822 822 821 821 821 820 820 819 818 817 816 815 814 813 812 810 809 807 806 804 803 802 801 800 799 798 797 796 795 794 793 792 791
788 791 792 793 795 795 796 798 800 801 802 803 805 805 806 808 810 811 811 810 810 810 810 811 812 813 814 815 816 817 818 818 819 820 820 820 820 821 821 821 821 821 822 822 822 821 821 821 821 821 821 821 821 821 821 821 820 820 820 819 818 817 816 814 813 812 810 809 807 806 804 803 802 800 799 798 797 797 796 795 794 793 792 791 790
789 791 793 794 795 797 798 799 800 801 802 803 804 804 806 808 809 811 811 811 811 811 811 811 812 813 814 815 816 817 818 818 819 820 820 821 821 820 820 820 820 820 821 821 821 821 821 821 821 821 821 821 821 821 820 820 820 819 819 818 817 816 815 814 813 811 809 807 806 805 803 802 800 799 798 797 796 795 794 794 793 792 791 790 789
789 791 792 794 796 797 798 798 799 799 800 802 803 803 805 807 809 811 812 813 812 812 811 812 812 814 815 816 816 817 818 819 820 820 821 821 821 821 820 820 820 820 820 820 820 820 820 821 820 820 820 820 820 820 820 820 820 819 819 818 816 816 815 813 812 810 808 806 804 803 801 800 799 798 797 795 794 794 793 792 791 790 789 788 787
788 790 791 793 795 795 796 796 797 798 799 800 802 803 805 807 809 811 812 813 813 813 812 812 813 814 815 816 816 817 818 818 819 819 820 820 821 820 820 820 820 820 820 819 820 820 820 820 820 820 820 820 820 820 820 820 819 819 818 817 816 815 814 813 811 809 807 805 803 802 800 799 798 797 795 794 792 791 790 789 788 787 786 785 784
786 788 789 792 793 794 795 795 796 798 799 801 803 804 806 808 810 811 812 813 814 814 814 813 814 814 815 815 816 816 817 817 817 818 819 819 820 820 820 820 820 820 820 819 820 820 820 820 820 820 820 820 820 820 820 819 819 818 817 817 816 815 814 812 810 808 806 805 803 801 799 797 796 795 794 792 791 790 788 787 785 784 783 782 781
785 787 788 790 791 793 794 796 798 800 801 803 804 805 807 810 811 812 813 814 815 815 815 814 814 814 814 815 816 817 817 818 818 818 818 818 819 819 820 820 821 820 820 820 820 820 820 821 821 820 821 821 820 820 820 819 818 817 817 816 815 814 813 811 809 808 806 805 803 801 799 797 795 794 793 791 790 788 786 785 783 782 780 779 778
785 787 788 789 790 792 794 797 799 801 802 804 805 806 808 811 812 813 814 815 816 816 816 815 814 813 815 816 817 818 818 818 819 818 818 818 818 819 820 821 821 821 821 821 821 821 821 821 821 821 821 821 820 820 819 818 818 817 816 816 815 813 812 810 808 807 805 804 802 800 798 797 795 793 792 791 789 787 785 783 781 780 778 777 776
783 785 786 788 790 792 795 797 799 800 802 803 805 806 808 811 813 814 815 816 817 817 816 815 814 814 816 817 818 818 818 818 819 818 818 818 819 820 820 821 822 821 821 821 821 822 822 821 821 821 821 820 820 819 818 818 817 817 816 815 814 812 811 809 808 806 805 803 801 800 798 796 795 793 791 790 788 787 785 783 781 779 777 776 774
781 783 785 788 790 792 794 796 797 799 801 803 804 805 808 811 813 814 816 816 817 818 817 816 815 815 816 816 817 817 818 818 818 818 818 819 820 821 821 822 822 822 822 822 822 822 822 822 822 821 820 820 819 818 818 817 817 816 815 814 813 812 810 809 807 806 804 803 801 800 798 796 794 792 791 789 787 786 784 782 780 778 776 775 773
781 783 785 787 789 791 792 794 796 798 800 802 804 805 807 810 812 814 815 816 817 817 817 816 815 815 815 816 816 817 818 817 818 818 818 819 820 821 821 822 822 822 822 822 822 823 822 822 821 821 820 819 819 818 818 817 817 816 815 814 813 812 810 809 807 805 804 802 801 799 798 796 794 792 790 788 787 785 783 781 779 777 775 773 772
780 782 783 785 787 789 791 793 794 796 798 801 802 804 807 809 811 813 814 815 816 816 815 814 814 814 815 817 817 818 818 817 818 818 818 819 821 821 822 822 822 822 822 823 823 823 822 822 821 820 820 819 819 818 818 818 817 816 815 814 813 812 810 809 807 805 803 802 801 799 797 796 794 792 789 787 786 784 782 780 778 776 774 772 771
779 781 782 783 785 787 788 790 790 792 794 797 799 802 806 809 810 812 813 813 814 814 813 813 814 814 816 817 818 818 818 817 818 818 819 820 821 822 822 822 823 823 823 823 823 822 822 822 821 820 820 819 819 819 818 818 818 817 816 814 813 812 810 809 807 806 804 802 800 798 796 794 792 790 788 785 783 782 780 778 776 774 773 771 769
778 779 780 782 783 785 785 785 784 784 786 789 794 798 803 807 809 810 811 812 813 813 813 813 813 814 815 817 818 818 818 818 818 818 819 820 821 822 823 823 823 823 823 823 823 823 822 822 821 821 820 820 820 819 819 819 818 817 816 815 813 812 811 809 807 805 804 802 800 798 795 793 791 788 786 783 781 779 777 775 773 771 770 768 767
776 777 778 779 779 781 781 781 781 780 780 783 789 794 800 804 807 808 810 812 813 813 813 813 813 815 816 816 817 818 818 819 819 819 820 821 822 822 823 823 823 823 823 823 823 823 822 822 821 821 821 821 820 820 820 819 818 817 816 815 814 813 811 809 807 806 804 802 800 797 794 792 789 786 784 781 779 776 775 773 771 769 767 766 764
775 777 777 776 777 778 778 778 779 779 779 782 787 793 798 802 804 807 809 810 811 812 812 812 814 815 816 816 817 818 819 819 819 820 820 821 822 823 823 824 824 824 824 824 823 823 823 822 822 822 821 821 821 820 820 819 818 817 817 815 814 813 812 810 808 806 804 802 799 797 794 791 788 785 782 779 776 774 773 771 769 767 765 764 763
775 777 779 780 780 779 779 780 781 781 781 785 790 794 798 801 803 805 807 809 810 811 810 811 813 814 815 816 817 818 819 819 819 820 821 821 822 823 823 824 824 824 824 824 824 823 823 822 822 822 821 821 821 820 820 819 818 818 817 816 815 814 812 811 809 807 804 802 799 797 793 790 787 784 780 777 774 772 771 770 768 766 764 763 762
779 783 787 790 789 786 783 782 783 784 783 786 791 794 797 800 803 805 807 808 809 809 809 810 811 812 813 815 816 817 818 819 819 820 820 821 822 822 823 824 824 824 824 824 824 823 823 823 822 822 821 821 821 820 820 819 819 818 817 816 815 814 812 811 809 807 804 801 799 796 792 789 786 783 780 776 773 771 770 768 767 765 764 762 761
785 787 788 790 791 790 786 784 785 786 784 784 788 792 796 799 802 806 809 811 810 809 809 809 809 810 812 813 815 816 817 818 819 820 820 821 822 822 823 823 824 824 824 824 824 823 823 823 822 822 822 821 821 821 820 819 819 818 817 816 815 813 812 810 808 806 803 800 797 794 791 788 784 782 779 776 773 771 768 767 766 764 763 762 760
784 782 780 779 781 784 784 784 786 788 788 786 786 790 793 796 799 803 808 812 814 813 813 812 810 810 812 813 815 816 817 818 819 820 821 822 822 822 823 823 824 824 824 824 823 823 822 822 822 822 822 822 821 821 820 819 819 818 817 816 814 813 811 809 807 805 802 799 796 793 790 786 783 780 777 775 772 770 768 766 765 764 762 761 759
780 777 775 775 777 780 781 781 782 786 790 790 786 786 790 792 795 797 800 806 812 815 816 817 814 812 813 815 815 816 817 818 819 821 821 822 823 823 823 823 823 824 823 823 823 822 822 822 823 823 822 822 821 821 820 820 819 818 817 815 814 813 811 809 807 805 802 799 796 792 789 785 782 779 776 774 772 770 768 766 765 763 762 760 759
779 777 775 775 777 779 780 781 781 783 789 791 787 784 786 789 791 793 796 801 805 808 812 816 818 815 815 816 816 817 817 818 819 820 821 822 823 824 824 823 823 823 823 823 822 822 822 823 823 823 823 822 822 821 821 820 819 818 817 816 814 813 811 810 807 805 802 798 795 792 789 785 782 780 777 775 773 770 768 766 764 763 761 760 759
779 778 776 776 777 779 780 783 783 783 787 791 788 784 783 785 788 791 794 798 801 802 804 811 816 817 816 816 817 817 817 818 819 820 821 822 823 823 824 824 823 823 823 822 822 822 823 823 823 823 823 823 822 822 821 820 819 818 817 816 815 814 812 810 808 805 801 798 795 792 789 786 783 780 778 776 774 771 769 767 765 763 762 760 759